User: anonymous   Login
Location: *
(37.5724°S, 58.0067°E)
Time: 23:17:59
(UTC+00:00)
Language:

Cosmos 1943 Rocket - Orbit

View from above orbital plane
View from above orbital plane
View from above satellite
View from above satellite

Ground track
Ground track

The orbit data is extracted from the following two-line orbital elements,

1 19120U 88039B   20332.35421197  .00000184  00000-0  11057-3 0  9993
2 19120  71.0139 184.3085 0020053  53.7923 306.5052 14.19209785685033
Epoch (UTC): 27 November 2020 08:30:03
Eccentricity: 0.0020053
inclination: 71.0139°
perigee height: 813 km
apogee height: 842 km
right ascension of ascending node: 184.3085°
argument of perigee: 53.7923°
revolutions per day: 14.19209785
mean anomaly at epoch: 306.5052°
orbit number at epoch: 68503

The dashed part of the orbit path shows where the satellite is in the earth's shadow,  

DLR